| time (UTC) | temp C | wind direction | speed KPH | gust KPH | rain 1hr cm | rain 24hr cm | rain mn cm | humidity % | barometer mb |
| 20260901150049 | 21 | 0 | 0.0 | 4.8 | 0.10 | 1.45 | 1.30 | 100 | 1015.8 |
| 20260901144601 | 21 | 0 | 0.0 | 0.0 | 0.08 | 1.42 | 1.27 | 100 | 1015.8 |
| 20260901143100 | 21 | 0 | 0.0 | 0.0 | 0.05 | 1.40 | 1.24 | 100 | 1016.0 |
| 20260901141552 | 21 | 0 | 0.0 | 0.0 | 0.00 | 1.32 | 1.19 | 100 | 1015.9 |
| 20260901140049 | 21 | 0 | 0.0 | 0.0 | 0.00 | 1.32 | 1.19 | 100 | 1016.1 |
| 20260901134549 | 21 | 0 | 0.0 | 0.0 | 0.00 | 1.32 | 1.19 | 100 | 1015.8 |
| 20260901133059 | 21 | 0 | 0.0 | 0.0 | 0.00 | 1.32 | 1.19 | 100 | 1015.7 |
| 20260901131555 | 21 | 0 | 0.0 | 0.0 | 0.00 | 1.32 | 1.19 | 100 | 1015.7 |
| 20260901130059 | 21 | 0 | 0.0 | 0.0 | 0.00 | 1.32 | 1.19 | 100 | 1015.8 |
| 20260901124549 | 21 | 0 | 0.0 | 0.0 | 0.00 | 1.32 | 1.19 | 100 | 1015.9 |
| 20260901123058 | 21 | 0 | 0.0 | 0.0 | 0.00 | 1.32 | 1.19 | 100 | 1015.6 |
| 20260901121551 | 21 | 0 | 0.0 | 0.0 | 0.00 | 1.32 | 1.19 | 100 | 1015.7 |
| 20260901120050 | 21 | 0 | 0.0 | 0.0 | 0.00 | 1.32 | 1.19 | 100 | 1015.6 |
| 20260901114622 | 21 | 0 | 0.0 | 0.0 | 0.00 | 1.32 | 1.19 | 100 | 1015.9 |
| 20260901113057 | 20 | 0 | 0.0 | 0.0 | 0.00 | 1.32 | 1.19 | 100 | 1015.8 |
| 20260901111552 | 20 | 0 | 0.0 | 0.0 | 0.00 | 1.32 | 1.19 | 100 | 1015.6 |
| 20260901104557 | 20 | 0 | 0.0 | 0.0 | 0.00 | 1.32 | 1.19 | 100 | 1015.9 |
| 20260901103051 | 20 | 0 | 0.0 | 0.0 | 0.00 | 1.32 | 1.19 | 100 | 1016.1 |
| 20260901101553 | 20 | 0 | 0.0 | 0.0 | 0.00 | 1.32 | 1.19 | 100 | 1016.0 |
| 20260901100056 | 20 | 0 | 0.0 | 0.0 | 0.00 | 1.32 | 1.19 | 100 | 1015.6 |
| 20260901094550 | 20 | 0 | 0.0 | 0.0 | 0.00 | 1.32 | 1.19 | 100 | 1015.6 |
| 20260901093059 | 20 | 0 | 0.0 | 0.0 | 0.00 | 1.32 | 1.19 | 100 | 1015.7 |
| 20260901091549 | 20 | 0 | 0.0 | 0.0 | 0.00 | 1.32 | 1.19 | 100 | 1015.8 |
| 20260901090058 | 20 | 0 | 0.0 | 0.0 | 0.00 | 1.32 | 1.19 | 100 | 1015.8 |
| 20260901084604 | 20 | 0 | 0.0 | 0.0 | 0.00 | 1.32 | 1.19 | 100 | 1016.0 |
| 20260901083054 | 20 | 0 | 0.0 | 0.0 | 0.00 | 1.32 | 1.19 | 100 | 1016.1 |
| 20260901081548 | 20 | 0 | 0.0 | 0.0 | 0.00 | 1.32 | 1.19 | 100 | 1016.1 |
| 20260901080050 | 20 | 0 | 0.0 | 0.0 | 0.00 | 1.32 | 1.19 | 100 | 1016.2 |
| 20260901074558 | 20 | 0 | 0.0 | 1.6 | 0.00 | 1.32 | 1.19 | 100 | 1016.3 |
| 20260901073100 | 20 | 0 | 0.0 | 0.0 | 0.00 | 1.32 | 1.19 | 100 | 1016.3 |
| 20260901071549 | 20 | 0 | 0.0 | 0.0 | 0.00 | 1.32 | 1.19 | 100 | 1016.2 |
| 20260901070113 | 20 | 0 | 0.0 | 3.2 | 0.25 | 1.32 | 1.19 | 99 | 1016.4 |
| 20260901064557 | 20 | 0 | 0.0 | 1.6 | 0.30 | 1.32 | 1.19 | 99 | 1016.6 |
| 20260901063053 | 20 | 0 | 0.0 | 0.0 | 0.33 | 1.32 | 1.19 | 99 | 1016.7 |
| 20260901061603 | 20 | 0 | 0.0 | 0.0 | 0.33 | 1.32 | 1.19 | 99 | 1016.9 |
| 20260901060100 | 20 | 0 | 0.0 | 0.0 | 0.20 | 1.09 | 0.94 | 99 | 1017.2 |
| 20260901054559 | 20 | 0 | 0.0 | 0.0 | 0.48 | 1.04 | 0.89 | 99 | 1016.9 |
| 20260901053054 | 20 | 0 | 0.0 | 1.6 | 0.64 | 1.02 | 0.86 | 98 | 1017.0 |
| 20260901051559 | 20 | 0 | 0.0 | 0.0 | 0.74 | 1.02 | 0.86 | 98 | 1017.1 |
| 20260901050058 | 20 | 0 | 0.0 | 0.0 | 0.71 | 0.89 | 0.74 | 98 | 1017.3 |
| 20260901044557 | 20 | 0 | 0.0 | 0.0 | 0.53 | 0.56 | 0.41 | 97 | 1017.4 |
| 20260901043051 | 20 | 0 | 0.0 | 0.0 | 0.38 | 0.38 | 0.23 | 96 | 1017.6 |
| 20260901041550 | 20 | 0 | 0.0 | 0.0 | 0.28 | 0.28 | 0.13 | 95 | 1017.6 |
| 20260901040058 | 21 | 0 | 0.0 | 0.0 | 0.15 | 0.15 | 0.00 | 95 | 1017.6 |
| 20260901034553 | 21 | 0 | 0.0 | 0.0 | 0.03 | 0.03 | 0.03 | 94 | 1017.5 |
| 20260901033117 | 21 | 0 | 0.0 | 0.0 | 0.00 | 0.00 | 0.00 | 93 | 1017.5 |
| 20260901031559 | 21 | 0 | 0.0 | 0.0 | 0.00 | 0.00 | 0.00 | 92 | 1017.6 |
| 20260901024552 | 21 | 0 | 0.0 | 0.0 | 0.00 | 0.00 | 0.00 | 91 | 1017.8 |
| 20260901023051 | 21 | 0 | 0.0 | 0.0 | 0.00 | 0.00 | 0.00 | 91 | 1017.8 |
| 20260901021600 | 21 | 0 | 0.0 | 0.0 | 0.00 | 0.00 | 0.00 | 90 | 1018.1 |
| 20260901020057 | 21 | 0 | 0.0 | 0.0 | 0.00 | 0.00 | 0.00 | 89 | 1018.0 |
| 20260901014554 | 21 | 0 | 0.0 | 0.0 | 0.00 | 0.08 | 0.00 | 89 | 1018.1 |
| 20260901013055 | 21 | 0 | 0.0 | 0.0 | 0.00 | 0.08 | 0.00 | 89 | 1018.2 |
| 20260901011609 | 21 | 0 | 0.0 | 0.0 | 0.00 | 0.08 | 0.00 | 89 | 1018.1 |
| 20260901010113 | 21 | 0 | 0.0 | 0.0 | 0.00 | 0.08 | 0.00 | 89 | 1018.1 |
| 20260901004558 | 21 | 0 | 0.0 | 0.0 | 0.00 | 0.15 | 0.00 | 89 | 1018.0 |
| 20260901003052 | 21 | 0 | 0.0 | 0.0 | 0.00 | 0.15 | 0.00 | 89 | 1017.9 |
| 20260901001548 | 21 | 0 | 0.0 | 0.0 | 0.00 | 0.15 | 0.00 | 89 | 1017.9 |
| 20260831234558 | 22 | 0 | 0.0 | 0.0 | 0.00 | 0.15 | 0.00 | 88 | 1017.9 |
| 20260831233052 | 22 | 0 | 0.0 | 0.0 | 0.00 | 0.15 | 0.00 | 87 | 1018.0 |
| 20260831231549 | 22 | 0 | 0.0 | 0.0 | 0.00 | 0.15 | 0.00 | 84 | 1018.1 |
| 20260831224557 | 23 | 0 | 0.0 | 0.0 | 0.00 | 0.15 | 0.00 | 83 | 1018.3 |
| 20260831223057 | 23 | 0 | 0.0 | 1.6 | 0.00 | 0.15 | 0.00 | 82 | 1018.2 |
| 20260831221608 | 23 | 0 | 0.0 | 0.0 | 0.00 | 0.15 | 0.00 | 83 | 1018.3 |
| 20260831220105 | 23 | 254 | 0.0 | 1.6 | 0.00 | 0.15 | 0.00 | 82 | 1018.4 |
| 20260831214559 | 23 | 0 | 0.0 | 12.9 | 0.00 | 0.15 | 0.00 | 81 | 1018.4 |
| 20260831213050 | 23 | 0 | 3.2 | 11.3 | 0.00 | 0.15 | 0.00 | 81 | 1018.3 |
| 20260831211557 | 23 | 0 | 0.0 | 6.4 | 0.00 | 0.15 | 0.00 | 81 | 1018.4 |
| 20260831210053 | 23 | 263 | 0.0 | 16.1 | 0.00 | 0.15 | 0.00 | 81 | 1018.5 |
| 20260831204550 | 23 | 0 | 1.6 | 12.9 | 0.00 | 0.15 | 0.00 | 80 | 1018.6 |
| 20260831203106 | 24 | 0 | 1.6 | 6.4 | 0.00 | 0.15 | 0.00 | 76 | 1018.4 |
| 20260831201554 | 24 | 0 | 0.0 | 0.0 | 0.00 | 0.15 | 0.00 | 76 | 1018.4 |
| 20260831200053 | 24 | 0 | 0.0 | 1.6 | 0.00 | 0.15 | 0.00 | 76 | 1018.6 |
| 20260831194604 | 25 | 0 | 0.0 | 0.0 | 0.00 | 0.15 | 0.00 | 76 | 1018.7 |
| 20260831193053 | 25 | 0 | 0.0 | 3.2 | 0.00 | 0.15 | 0.00 | 72 | 1018.8 |
| 20260831191548 | 25 | 0 | 0.0 | 4.8 | 0.00 | 0.15 | 0.00 | 70 | 1018.9 |
| 20260831190109 | 25 | 0 | 0.0 | 6.4 | 0.00 | 0.15 | 0.00 | 71 | 1019.2 |
| 20260831184556 | 25 | 0 | 0.0 | 4.8 | 0.00 | 0.15 | 0.00 | 71 | 1019.3 |
| 20260831183108 | 25 | 0 | 0.0 | 1.6 | 0.00 | 0.15 | 0.00 | 69 | 1019.4 |
| 20260831181602 | 26 | 202 | 0.0 | 3.2 | 0.00 | 0.15 | 0.00 | 71 | 1019.5 |
| 20260831174554 | 26 | 0 | 0.0 | 6.4 | 0.00 | 0.15 | 0.00 | 70 | 1019.8 |
| 20260831173056 | 26 | 0 | 0.0 | 3.2 | 0.00 | 0.15 | 0.00 | 68 | 1019.8 |
| 20260831171558 | 26 | 51 | 0.0 | 4.8 | 0.00 | 0.15 | 0.00 | 67 | 1019.7 |
| 20260831170058 | 25 | 0 | 0.0 | 6.4 | 0.00 | 0.15 | 0.00 | 68 | 1019.9 |
| 20260831164552 | 26 | 0 | 0.0 | 4.8 | 0.00 | 0.15 | 0.00 | 67 | 1020.0 |
| 20260831163049 | 26 | 44 | 0.0 | 8.0 | 0.00 | 0.15 | 0.00 | 69 | 1019.9 |
| 20260831161600 | 25 | 0 | 0.0 | 3.2 | 0.00 | 0.15 | 0.00 | 70 | 1020.1 |
| 20260831160106 | 25 | 0 | 0.0 | 4.8 | 0.00 | 0.15 | 0.00 | 72 | 1020.1 |
| 20260831154622 | 25 | 0 | 0.0 | 6.4 | 0.00 | 0.15 | 0.00 | 72 | 1020.1 |
| 20260831153050 | 25 | 0 | 0.0 | 3.2 | 0.00 | 0.15 | 0.00 | 74 | 1020.2 |
| 20260831151602 | 24 | 0 | 0.0 | 6.4 | 0.00 | 0.15 | 0.00 | 77 | 1020.2 |